Regional Weather Roundup
Issued by NWS

Home | Current Version | Previous Version | Graphics & Text | Print | Product List | Glossary On
Versions: 1 2 3 4 5 6 7 8 9 10 11 12 13 14 15 16 17 18 19 20 21 22 23 24 25 26 27 28 29 30 31 32 33 34 35 36 37 38 39 40 41 42 43 44 45 46 47 48 49 50
901
ASUS45 KCYS 200510
RWRWY

WYOMING REGIONAL WEATHER ROUNDUP
NATIONAL WEATHER SERVICE CHEYENNE WY
1100 PM MDT THU OCT 19 2017

NOTE:  "FAIR" INDICATES FEW OR NO CLOUDS BELOW 12,000 FEET
WITH NO SIGNIFICANT WEATHER AND/OR OBSTRUCTIONS TO VISIBILITY.

WYZ001-200600-
YELLOWSTONE NATIONAL PARK

CITY           SKY/WX    TMP DP  RH WIND       PRES   REMARKS
LK YELLOWSTONE   N/A     27  21  78 CALM      29.90F
W YELLOWSTONE  NOT AVBL

$$
WYZ002>013-054>058-071-098>099-200600-
NORTHERN WYOMING

CITY           SKY/WX    TMP DP  RH WIND       PRES   REMARKS
JACKSON        FAIR      39  17  41 SE6       29.85F WCI  35
CODY           FAIR      53  17  24 SW9       29.73F
GREYBULL       FAIR      48  21  34 CALM      29.68S
WORLAND        FAIR      49  22  34 VRB5      29.70S
SHERIDAN       FAIR      44  29  55 SW7       29.63F
BUFFALO        FAIR      59  11  15 NW8       29.68F
GILLETTE       FAIR      60  16  18 S20       29.68F
HULETT         FAIR      66  19  16 SW15G26   29.68F
NEWCASTLE      FAIR      59  18  20 SE13G21   29.75F

$$
WYZ014>020-022>026-101>103-200600-
CENTRAL WYOMING

CITY           SKY/WX    TMP DP  RH WIND       PRES   REMARKS
BIG PINEY      CLOUDY    41  20  43 NE3       29.93F
PINEDALE       MOCLDY    37  21  52 CALM      29.94F
DUBOIS         FAIR      41  14  33 NW9       29.86F
LANDER         FAIR      59  16  18 CALM      29.78F
RIVERTON       FAIR      51  19  28 SW9       29.78F
CASPER         FAIR      53  28  38 SW15      29.81F
DOUGLAS        FAIR      48  26  42 SE6       29.82F

$$
WYZ021-027>030-104>119-200600-
SOUTHERN WYOMING

CITY           SKY/WX    TMP DP  RH WIND       PRES   REMARKS
EVANSTON       FAIR      50  31  48 S9        29.93F
KEMMERER       FAIR      50  14  23 S5        29.95S
FORT BRIDGER   FAIR      56  25  30 SW12      29.96F
ROCK SPRINGS   FAIR      51  25  36 SW15      29.92F
DIXON          MOCLDY    53  29  39 S10G16    29.99F
RAWLINS        FAIR      50  26  39 SW9       29.94F
SARATOGA       FAIR      46  28  49 S15       29.98F
LARAMIE        FAIR      39  24  55 SE9       29.99F WCI  33
CHEYENNE       FAIR      45  25  45 W8        29.92F
TORRINGTON     FAIR      51  27  39 E7        29.80F
PINE BLUFFS    FAIR      46  32  57 SW7       29.89F

$$




USA.gov is the U.S. government's official web portal to all federal, state and local government web resources and services.